Holland, MI

3:57 AM EST on January 24, 2018 (GMT -0500)
Tulip City

Weather History for KBIV - January, 2013

Change the Weather History Date:

Friday, January 25, 2013

  Actual Average Record
Temperature  
Mean Temperature 22 °F 26 °F  
Max Temperature 28 °F 32 °F 67 °F (1950)
Min Temperature 15 °F 19 °F -9 °F (1961)
Degree Days  
Heating Degree Days 43 39  
Month to date heating degree days 886 966  
Since 1 July heating degree days 2990 3234  
Cooling Degree Days 0 0  
Month to date cooling degree days 0 0  
Year to date cooling degree days 0 0  
Moisture  
Dew Point 15 °F    
Average Humidity 67    
Maximum Humidity 81    
Minimum Humidity 53    
Precipitation  
Precipitation 0.07 in 0.08 in 0.82 in (1975)
Month to date precipitation 1.36 1.69  
Year to date precipitation 1.36 1.69  
Sea Level Pressure  
Sea Level Pressure 30.09 in    
Wind  
Wind Speed 8 mph (SSE)    
Max Wind Speed 16 mph    
Max Gust Speed 20 mph    
Visibility 4 miles    
Events Snow    
T = Trace of Precipitation, MM = Missing Value Source: NWS Daily Summary

Daily Weather History Graph

Daily Weather History Graph

Search for Another Location

Airport or City:

Trip Planner

Search our weather history database for the weather conditions in past years. The results will help you decide how hot, cold, wet, or windy it might be!

Date:

Astronomy

Jan. 25, 2013 Rise Set
Actual Time 8:05 AM EST 5:48 PM EST
Civil Twilight 7:34 AM EST 6:19 PM EST
Nautical Twilight 7:00 AM EST 6:53 PM EST
Astronomical Twilight 6:27 AM EST 7:27 PM EST
Moon 4:45 PM EST (1/25) 6:44 AM EST (1/25)
Length of Visible Light 10h 44m
Length of Day
9h 43m
Waxing Gibbous, 98% of the Moon is Illuminated
Jan 25
Waxing Gibbous
Jan 26
Full
Feb 3
Last Quarter
Feb 10
New
Feb 17
First Quarter

Hourly Weather History & Observations

Time (EST) Temp. Windchill Dew Point Humidity Pressure Visibility Wind Dir Wind Speed Gust Speed Precip Events Conditions
12:53 AM 15.1 °F 6.4 °F 3.9 °F 61% 30.47 in 10.0 mi ESE 5.8 mph - N/A   Overcast
1:53 AM 16.0 °F 6.3 °F 3.0 °F 57% 30.44 in 10.0 mi SE 6.9 mph - N/A   Overcast
2:02 AM 15.8 °F 5.1 °F 3.2 °F 58% 30.39 in 4.0 mi ESE 8.1 mph - 0.00 in Snow Light Snow
2:10 AM 15.8 °F 4.2 °F 5.0 °F 62% 30.38 in 2.5 mi SE 9.2 mph - 0.00 in Snow Light Snow
2:17 AM 15.8 °F 4.2 °F 5.0 °F 62% 30.37 in 6.0 mi ESE 9.2 mph - 0.00 in Snow Light Snow
2:53 AM 16.0 °F 5.3 °F 5.0 °F 62% 30.40 in 10.0 mi ESE 8.1 mph - 0.00 in   Overcast
3:53 AM 16.0 °F 5.3 °F 3.0 °F 57% 30.37 in 10.0 mi ESE 8.1 mph - N/A   Overcast
4:53 AM 17.1 °F 5.8 °F 3.9 °F 56% 30.30 in 10.0 mi SE 9.2 mph - N/A   Overcast
5:53 AM 17.1 °F 6.6 °F 5.0 °F 59% 30.26 in 10.0 mi ESE 8.1 mph - N/A   Overcast
6:53 AM 17.1 °F 5.8 °F 6.1 °F 62% 30.23 in 10.0 mi SE 9.2 mph - N/A   Overcast
7:53 AM 18.0 °F 8.7 °F 8.1 °F 65% 30.21 in 10.0 mi SSE 6.9 mph - N/A   Overcast
8:40 AM 17.6 °F 9.3 °F 8.6 °F 68% 30.15 in 4.0 mi SE 5.8 mph - 0.00 in Snow Light Snow
8:46 AM 17.6 °F 8.2 °F 8.6 °F 68% 30.14 in 1.8 mi SE 6.9 mph - 0.00 in Snow Light Snow
8:53 AM 18.0 °F 8.7 °F 10.0 °F 71% 30.19 in 1.0 mi SSE 6.9 mph - 0.00 in Snow Light Snow
9:01 AM 17.6 °F 6.4 °F 10.4 °F 73% 30.13 in 0.8 mi SSE 9.2 mph - 0.00 in Snow Light Snow
9:15 AM 17.6 °F 8.2 °F 10.4 °F 73% 30.14 in 1.2 mi SSE 6.9 mph - 0.00 in Snow Light Snow
9:24 AM 17.6 °F 7.3 °F 10.4 °F 73% 30.13 in 1.8 mi SSE 8.1 mph - 0.00 in Snow Light Snow
9:33 AM 17.6 °F 7.3 °F 10.4 °F 73% 30.12 in 1.2 mi SSE 8.1 mph - 0.00 in Snow Light Snow
9:42 AM 17.6 °F 9.3 °F 12.2 °F 79% 30.13 in 2.0 mi SSE 5.8 mph - 0.00 in Snow Light Snow
9:53 AM 18.0 °F 8.7 °F 12.0 °F 78% 30.17 in 3.0 mi SSE 6.9 mph - 0.00 in Snow Light Snow
10:53 AM 19.9 °F 8.6 °F 12.9 °F 74% 30.14 in 10.0 mi South 10.4 mph - 0.00 in   Overcast
11:53 AM 21.9 °F 9.2 °F 12.9 °F 68% 30.10 in 10.0 mi South 13.8 mph - N/A   Overcast
12:53 PM 21.9 °F 9.2 °F 12.9 °F 68% 30.06 in 10.0 mi South 13.8 mph - N/A   Overcast
1:53 PM 23.0 °F 12.4 °F 14.0 °F 68% 30.02 in 8.0 mi South 10.4 mph - N/A   Overcast
2:22 PM 23.0 °F 11.1 °F 14.0 °F 68% 29.97 in 2.0 mi South 12.7 mph - 0.00 in Snow Light Snow
2:36 PM 23.0 °F 11.7 °F 15.8 °F 74% 29.96 in 1.8 mi South 11.5 mph - 0.00 in Snow Light Snow
2:51 PM 23.0 °F 11.1 °F 15.8 °F 74% 29.96 in 1.2 mi South 12.7 mph - 0.00 in Snow Light Snow
2:53 PM 23.0 °F 11.7 °F 15.1 °F 72% 29.99 in 1.2 mi South 11.5 mph - 0.00 in Snow Light Snow
3:53 PM 23.0 °F 13.1 °F 16.0 °F 74% 29.99 in 1.2 mi South 9.2 mph - 0.00 in Snow Light Snow
4:08 PM 23.0 °F 13.9 °F 17.6 °F 80% 29.96 in 0.8 mi South 8.1 mph - 0.00 in Snow Light Snow
4:25 PM 23.0 °F 13.1 °F 17.6 °F 80% 29.96 in 0.5 mi South 9.2 mph - 0.00 in Snow Snow
4:39 PM 23.0 °F 12.4 °F 17.6 °F 80% 29.96 in 0.5 mi South 10.4 mph - 0.00 in Snow Snow
4:53 PM 23.0 °F 12.4 °F 17.1 °F 78% 30.00 in 0.5 mi South 10.4 mph - 0.01 in Snow Snow
5:22 PM 23.0 °F 11.7 °F 17.6 °F 80% 29.96 in 0.5 mi South 11.5 mph - 0.00 in Snow Snow
5:41 PM 23.0 °F 12.4 °F 17.6 °F 80% 29.96 in 0.8 mi South 10.4 mph - 0.01 in Snow Light Snow
5:49 PM 23.0 °F 12.4 °F 17.6 °F 80% 29.96 in 1.0 mi South 10.4 mph - 0.01 in Snow Light Snow
5:53 PM 23.0 °F 13.9 °F 18.0 °F 81% 30.00 in 1.0 mi South 8.1 mph - 0.01 in Snow Light Snow
6:22 PM 23.0 °F 14.7 °F 17.6 °F 80% 29.97 in 1.8 mi SSE 6.9 mph - 0.01 in Snow Light Snow
6:36 PM 23.0 °F 17.0 °F 19.4 °F 86% 29.97 in 1.0 mi Variable 4.6 mph - 0.01 in Snow Light Snow
6:45 PM 26.6 °F 18.2 °F 21.2 °F 80% 29.97 in 1.5 mi WNW 8.1 mph - 0.01 in Snow Light Snow
6:53 PM 27.0 °F 17.3 °F 21.0 °F 78% 30.01 in 1.8 mi West 10.4 mph 17.3 mph 0.01 in Snow Light Snow
7:03 PM 26.6 °F 18.2 °F 19.4 °F 74% 29.97 in 3.0 mi WNW 8.1 mph 17.3 mph 0.00 in Snow Light Snow
7:33 PM 26.6 °F 16.8 °F 19.4 °F 74% 29.98 in 1.8 mi NW 10.4 mph - 0.01 in Snow Light Snow
7:47 PM 28.4 °F 20.4 °F 19.4 °F 69% 29.98 in 3.0 mi WNW 8.1 mph - 0.01 in Snow Light Snow
7:48 PM 28.0 °F 19.3 °F 19.0 °F 69% 30.01 in 3.0 mi NW 9.2 mph - 0.01 in Snow Light Snow
8:16 PM 28.4 °F 22.2 °F 19.4 °F 69% 29.99 in 6.0 mi NW 5.8 mph - 0.00 in Snow Light Snow
8:27 PM 26.6 °F 18.2 °F 19.4 °F 74% 29.99 in 2.5 mi NW 8.1 mph - 0.00 in Snow Light Snow
8:45 PM 26.6 °F 18.2 °F 21.2 °F 80% 29.99 in 1.2 mi WNW 8.1 mph 16.1 mph 0.00 in Snow Light Snow
8:53 PM 27.0 °F 18.7 °F 21.0 °F 78% 30.03 in 1.8 mi NW 8.1 mph - 0.00 in Snow Light Snow
9:00 PM 26.6 °F 19.1 °F 21.2 °F 80% 30.00 in 2.0 mi NW 6.9 mph - 0.00 in Snow Light Snow
9:11 PM 26.6 °F 19.1 °F 19.4 °F 74% 30.00 in 4.0 mi NW 6.9 mph - 0.00 in Snow Light Snow
9:33 PM 26.6 °F 20.0 °F 19.4 °F 74% 30.00 in 7.0 mi NW 5.8 mph - 0.00 in Snow Light Snow
9:51 PM 26.6 °F 19.1 °F 19.4 °F 74% 30.00 in 5.0 mi WNW 6.9 mph - 0.00 in Snow Light Snow
9:53 PM 27.0 °F 18.7 °F 19.0 °F 72% 30.04 in 5.0 mi NW 8.1 mph - 0.00 in Snow Light Snow
10:17 PM 26.6 °F 20.0 °F 19.4 °F 74% 30.01 in 6.0 mi NE 5.8 mph - 0.00 in Snow Light Snow
10:53 PM 26.1 °F 21.9 °F 19.9 °F 78% 30.06 in 7.0 mi NE 3.5 mph - 0.00 in   Overcast
11:11 PM 24.8 °F - 19.4 °F 80% 30.04 in 3.0 mi Calm Calm - 0.00 in Snow Light Snow
11:16 PM 24.8 °F - 19.4 °F 80% 30.04 in 2.0 mi Calm Calm - 0.00 in Snow Light Snow
11:23 PM 24.8 °F - 19.4 °F 80% 30.04 in 1.2 mi Calm Calm - 0.00 in Snow Light Snow
11:29 PM 24.8 °F - 19.4 °F 80% 30.04 in 0.8 mi Calm Calm - 0.01 in Snow Light Snow
11:45 PM 24.8 °F 19.1 °F 19.4 °F 80% 30.05 in 0.8 mi NNE 4.6 mph - 0.02 in Snow Light Snow
11:53 PM 25.0 °F - 19.0 °F 78% 30.09 in 0.8 mi Calm Calm - 0.03 in Snow Light Snow